Regional Weather Roundup
Issued by NWS

Home | Current Version | Previous Version | Graphics & Text | Print | Product List | Glossary Off
Versions: 1 2 3 4 5 6 7 8 9 10 11 12 13 14 15 16 17 18 19 20 21 22 23 24 25 26 27 28 29 30 31 32 33 34 35 36 37 38 39 40 41 42 43 44 45 46 47 48 49 50

000
ASUS43 KMKX 272100
RWRWI

WISCONSIN REGIONAL WEATHER ROUNDUP
NATIONAL WEATHER SERVICE MILWAUKEE/SULLIVAN WI
300 PM CST MON FEB 27 2017

NOTE: "FAIR" INDICATES FEW OR NO CLOUDS BELOW 12,000 FEET WITH NO
SIGNIFICANT WEATHER AND/OR OBSTRUCTIONS TO VISIBILITY.

WIZ001-002-006>008-014>016-023>028-272200-
NORTHWEST WISCONSIN

CITY           SKY/WX    TMP DP  RH WIND       PRES   REMARKS
SUPERIOR ARPT  MOSUNNY   30  24  75 NE8       29.94F WCI  23
ASHLAND        PTSUNNY   39  24  55 N7        29.93F WCI  34
HAYWARD        SUNNY     44  17  33 S20G25    29.91S
SIREN          PTSUNNY   44  17  33 SW10G17   29.90S
CUMBERLAND     MOSUNNY   37  18  44 SW13G23   29.93S WCI  29
RICE LAKE      SUNNY     40  18  41 S13       29.95F WCI  33
CHETEK         SUNNY     39  20  46 S8        29.95F WCI  34
LADYSMITH      MOSUNNY   40  17  38 SW13      29.97F WCI  33
EAU CLAIRE     NOT AVBL
MENOMONIE      CLOUDY    40  21  46 S10       29.97F WCI  34
NEW RICHMOND   CLOUDY    42  16  35 S15G21    29.93F
OSCEOLA        CLOUDY    43  19  38 S12       29.95F
$$

WIZ003>005-009-010-017-018-272200-
NORTH CENTRAL WISCONSIN

CITY           SKY/WX    TMP DP  RH WIND       PRES   REMARKS
MANITOWISH WTR SUNNY     38  19  45 SW15G22   29.93R WCI  30
ARBOR VITAE    SUNNY     42  18  38 SW17        N/A
WOODRUFF       SUNNY     42  18  38 SW17        N/A
RHINELANDER    CLOUDY    40  16  37 SW12G17   29.96S WCI  33
EAGLE RIVER    CLOUDY    39  11  32 SW8G18    29.94S WCI  33
LAND O LAKES   SUNNY     41  15  34 SW8       29.95S
PHILLIPS       SUNNY     38  17  42 SW10G21   29.94S WCI  32
TOMAHAWK       CLOUDY    39  17  40 S6        29.97S WCI  35
MEDFORD        CLOUDY    37  18  47 S7        29.97F WCI  31
MERRILL        NOT AVBL
$$

WIZ029-030-035-036-043>047-272200-
CENTRAL WISCONSIN

CITY           SKY/WX    TMP DP  RH WIND       PRES   REMARKS
WAUSAU         CLOUDY    39  18  42 S9        29.98F WCI  33
MOSINEE        PTSUNNY   39  19  45 S9        30.00F WCI  33
MARSHFIELD     MOSUNNY   40  21  46 S9        29.97F WCI  34
STEVENS POINT  SUNNY     40  17  40 S10       30.01F WCI  33
WAUPACA        SUNNY     45  24  44 SE9       30.04F
WAUTOMA        PTSUNNY   42  27  55 S9        30.03F
WISC RAPIDS    SUNNY     44  19  36 SW12      30.01F
CAMP DOUGLAS   NOT AVBL
$$

WIZ011>013-019>022-031-037>040-048>050-272200-
NORTHEAST WISCONSIN

CITY           SKY/WX    TMP DP  RH WIND       PRES   REMARKS
ANTIGO         MOSUNNY   38  18  45 SW15      29.98F WCI  29
SHAWANO        SUNNY     43  20  39 S8        30.04F
OCONTO         SUNNY     39  25  57 S10G17    30.07S WCI  32
STURGEON BAY   SUNNY     38  26  62 S14G23    30.08S WCI  30
GREEN BAY      MOSUNNY   40  28  62 S14       30.06F WCI  32
MANITOWOC      NOT AVBL
APPLETON       PTSUNNY   41  23  48 S9        30.04F
CLINTONVILLE   SUNNY     41  23  48 S12       30.04F
OSHKOSH        CLOUDY    39  28  64 S7        30.05F WCI  34
$$

WIZ032>034-041-042-053>061-272200-
SOUTHWEST WISCONSIN

CITY           SKY/WX    TMP DP  RH WIND       PRES   REMARKS
LA CROSSE      SUNNY     47  27  45 S12       29.98F
SPARTA         SUNNY     45  25  46 S8        30.00F
VIROQUA        SUNNY     43  31  62 S9        29.98F
BOSCOBEL       MOSUNNY   50  33  52 SW9       30.01F
PRAIRIE DU CHI SUNNY     49  31  50 S7        30.00F
PLATTEVILLE    MOSUNNY   49  37  61 S16       30.01F
$$

WIZ056-057-062-063-064-067-068-272200-
SOUTH CENTRAL WISCONSIN

CITY           SKY/WX    TMP DP  RH WIND       PRES   REMARKS
REEDSBURG      SUNNY     45  33  64 SW12G17   30.01F
BARABOO/DELLS  MOSUNNY   44  31  59 S5        30.02F
LONE ROCK      NOT AVBL
MINERAL POINT  MOSUNNY   48  36  61 S10       30.01F
MADISON        PTSUNNY   48  29  47 SW8G16    30.02F
MIDDLETON      MOSUNNY   50  33  52 SW12G20   30.03F
WATERTOWN      SUNNY     48  32  53 SW16G22   30.05F
MONROE         SUNNY     46  32  57 S13       30.03F
JANESVILLE     MOSUNNY   52  30  43 SW9       30.05F
$$

WIZ051-052-058>065-066-070>072-272200-
SOUTHEAST WISCONSIN

CITY           SKY/WX    TMP DP  RH WIND       PRES   REMARKS
MILWAUKEE      PTSUNNY   44  32  62 SE9       30.08F
WAUKESHA       MOSUNNY   46  28  49 SW10G21   30.08F
MILWAUKEE/TIMM MOSUNNY   45  30  57 E8        30.08F
RACINE         SUNNY     44  33  65 S14       30.10F
KENOSHA        MOSUNNY   49  33  54 SE14      30.08S
FOND DU LAC    CLOUDY    41  28  60 S8        30.05F
SHEBOYGAN      CLOUDY    38  31  76 S10       30.08F WCI  31
WEST BEND      MOSUNNY   46  30  53 SW8       30.06F
JUNEAU         MOSUNNY   46  32  60 S12       30.06F
$$

LSZ147-162-272200-
LAKE SUPERIOR

STATION/POSITION TIME  TEMP    WIND        PRES    WAVE
                       AIR SEA DIR/SP/G            HT/PER
                 (UTC) (F)     (DEG/KT/KT) (MB)    (FT/S)
DEVILS ISLAND    2000   26      50/  4/  6 1016.1F
PORT WING        2040   28      30/ 12/ 13 1014.2F
SAXON HARBOR     2040   29      40/  7/  8 1014.2F
$$

LMZ867-665-643>646-272200-
LAKE MICHIGAN

STATION/POSITION TIME  TEMP    WIND        PRES    WAVE
                       AIR SEA DIR/SP/G            HT/PER
                 (UTC) (F)     (DEG/KT/KT) (MB)    (FT/S)
CHAMBERS ISLAND  2040   38     160/  7/ 13 1017.9F
NORTHPORT PIER   2040   38     160/  7/ 15 1018.6F
SISTER BAY       2005          190/ 15/ 18   N/A
KEWAUNEE LAKESHO 2030   36     180/ 14/ 16 1018.6F
SHEBOYGAN LAKESH 2000   36     160/  8/  9 1019.9F
PORT WASHINGTON  2040   40     170/ 11/ 12 1019.6F
MILWAUKEE LAKESH 2030   37     140/ 14/ 16   N/A
KENOSHA   LAKESH 2000   39     170/ 13/ 15 1019.0
$$

TC  - TEMPERATURE IN CELSIUS
VSB - VISIBILITY IN STATUTE MILES
WCI - WIND CHILL INDEX
HX  - HEAT INDEX





USA.gov is the U.S. government's official web portal to all federal, state and local government web resources and services.